This is the latest recevied weather packets stored in our database for station/object OE3BCB-14. If no packets are shown the sender has not sent any weather packets the latest 1 day(s).
| Time | Temp. | Humidity | Pressure | Rain* | Wind** | Luminosity | Snow |
|---|---|---|---|---|---|---|---|
| 1778107930 | 18.89° C | 48% | 1010.3 hPa | - | - | 0 W/m² | - |
| 1778107325 | 18.89° C | 48% | 1010.3 hPa | - | - | 0 W/m² | - |
| 1778106418 | 18.89° C | 46% | 1009.9 hPa | - | - | 0 W/m² | - |
| 1778105208 | 19.44° C | 43% | 1009.7 hPa | - | - | 0 W/m² | - |
| 1778104906 | 19.44° C | 43% | 1009.5 hPa | - | - | 0 W/m² | - |
| 1778104301 | 19.44° C | 42% | 1009.1 hPa | - | - | 0 W/m² | - |
| 1778102789 | 20° C | 39% | 1008.7 hPa | - | - | 0 W/m² | - |
| 1778102184 | 20.56° C | 38% | 1008.4 hPa | - | - | 0 W/m² | - |
| 1778101277 | 21.11° C | 37% | 1008 hPa | - | - | 0 W/m² | - |
| 1778100672 | 20° C | 36% | 1007.6 hPa | - | - | 0 W/m² | - |
| 1778099765 | 20.56° C | 35% | 1007.2 hPa | - | - | 0 W/m² | - |
| 1778099160 | 20.56° C | 35% | 1006.9 hPa | - | - | 0 W/m² | - |
| 1778097648 | 21.67° C | 33% | 1006.7 hPa | - | - | 0 W/m² | - |
| 1778097043 | 22.22° C | 33% | 1006.6 hPa | - | - | 0 W/m² | - |
| 1778096136 | 22.22° C | 32% | 1006.4 hPa | - | - | 0 W/m² | - |
| 1778095531 | 22.22° C | 32% | 1006.2 hPa | - | - | 0 W/m² | - |
| 1778094624 | 22.78° C | 31% | 1006 hPa | - | - | 0 W/m² | - |
| 1778094019 | 22.78° C | 31% | 1005.9 hPa | - | - | 0 W/m² | - |
| 1778092507 | 23.33° C | 30% | 1005.6 hPa | - | - | 0 W/m² | - |
| 1778090995 | 23.89° C | 29% | 1005.3 hPa | - | - | 1 W/m² | - |
| 1778089785 | 25° C | 27% | 1005.1 hPa | - | - | 5 W/m² | - |
| 1778089483 | 25° C | 27% | 1005.1 hPa | - | - | 7 W/m² | - |
| 1778088878 | 25.56° C | 27% | 1005.1 hPa | - | - | 10 W/m² | - |
| 1778088273 | 26.11° C | 26% | 1005.1 hPa | - | - | 12 W/m² | - |
| 1778087366 | 26.11° C | 25% | 1005.2 hPa | - | - | 16 W/m² | - |
* Rain since midnight (hover to see other rain measurements)
** Current wind speed in m/s (hover to see current wind gust speed)